contact:dominique.lefevre@mio.osupytheas.fr, maurice.libes@osupytheas.fr, didier.mallarino@osupytheas.fr
Project:EMSO http://www.emso-fr.org/EMSO-France
Depth: 2436.0 m
Title:EMSO Ligure Ouest : Data MII capteur AQUADOPP
Date,Latitude,Longitude,X_East,Y_North,Z_Up,Amplitude_X,Amplitude_Y,Amplitude_Z,Batterie,SoundSpeed,Heading,Pitch,Roll,Pressure,TIS,Speed,Direction
, degrees North, degrees East, m.s-1, m.s-1,m.s-1, 1, 1, 1, Volt, m.s-1, degree, degree, degree, dbar, degree_C, m.s-1, degree
2019-10-21T00:04:04,42.805,6.029,0.019,0.006,-0.034,100.0,105.0,98.0,13.3,1505.1,324.2,-0.8,1.8,2470.585,13.27,0.019,72.5
2019-10-21T00:07:05,42.805,6.029,0.015,-0.009,-0.05,100.0,105.0,98.0,13.3,1505.2,325.7,-0.8,1.9,2470.433,13.29,0.017,121.0
2019-10-21T00:10:06,42.805,6.029,0.025,-0.009,-0.008,100.0,106.0,98.0,13.3,1505.2,327.9,-0.7,1.8,2470.382,13.3,0.026,109.8
2019-10-21T00:13:07,42.805,6.029,0.014,0.003,-0.025,99.0,104.0,99.0,13.4,1505.3,328.4,-0.8,1.8,2470.329,13.31,0.014,77.9
2019-10-21T00:16:08,42.805,6.029,0.027,0.006,-0.061,100.0,104.0,98.0,13.4,1505.3,327.2,-0.7,1.8,2470.21,13.32,0.027,77.5
2019-10-21T00:19:09,42.805,6.029,0.026,-0.011,-0.017,101.0,105.0,98.0,13.4,1505.3,324.3,-0.7,1.9,2470.168,13.32,0.028,112.9
2019-10-21T00:22:10,42.805,6.029,0.035,-0.004,-0.044,99.0,104.0,97.0,13.4,1505.3,323.6,-0.7,1.8,2470.11,13.32,0.035,96.5
2019-10-21T00:25:11,42.805,6.029,0.032,-0.017,-0.02,100.0,104.0,97.0,13.3,1505.3,326.0,-0.8,1.8,2470.082,13.32,0.036,118.0
2019-10-21T00:28:12,42.805,6.029,0.012,0.007,-0.056,101.0,103.0,98.0,13.4,1505.3,328.5,-0.7,1.8,2470.135,13.32,0.013,59.7
2019-10-21T00:31:13,42.805,6.029,0.014,-0.019,-0.046,100.0,104.0,98.0,13.4,1505.3,328.2,-0.7,1.8,2470.035,13.32,0.023,143.6
2019-10-21T00:34:14,42.805,6.029,0.024,-0.003,-0.041,100.0,105.0,98.0,13.4,1505.3,327.1,-0.7,1.8,2469.982,13.32,0.024,97.1
2019-10-21T00:37:15,42.805,6.029,0.011,0.0,-0.014,100.0,104.0,97.0,13.4,1505.3,323.9,-0.7,1.8,2470.016,13.32,0.011,90.0
2019-10-21T00:40:16,42.805,6.029,0.022,-0.015,-0.054,100.0,104.0,98.0,13.4,1505.3,325.1,-0.7,1.8,2470.001,13.32,0.026,124.3
2019-10-21T00:43:17,42.805,6.029,-0.002,0.01,-0.027,101.0,104.0,97.0,13.4,1505.3,326.1,-0.7,1.8,2470.005,13.32,0.01,348.7
2019-10-21T00:46:18,42.805,6.029,0.034,-0.016,-0.04,99.0,105.0,97.0,13.4,1505.3,322.7,-0.8,1.8,2469.991,13.32,0.037,115.2
2019-10-21T00:49:19,42.805,6.029,0.043,-0.01,-0.032,100.0,104.0,98.0,13.4,1505.3,327.1,-0.7,1.8,2470.033,13.32,0.044,103.1
2019-10-21T00:52:20,42.805,6.029,0.01,-0.003,-0.041,99.0,104.0,98.0,13.4,1505.3,324.1,-0.7,1.9,2470.001,13.32,0.01,106.7
2019-10-21T00:55:21,42.805,6.029,0.041,-0.023,-0.046,100.0,105.0,98.0,13.4,1505.3,325.0,-0.7,1.8,2469.997,13.32,0.047,119.3
2019-10-21T00:58:22,42.805,6.029,0.042,-0.026,-0.051,99.0,102.0,97.0,13.3,1505.3,323.0,-0.7,1.8,2470.008,13.32,0.049,121.8
2019-10-21T01:01:23,42.805,6.029,-0.007,-0.026,-0.047,99.0,103.0,97.0,13.4,1505.3,327.2,-0.7,1.8,2469.96,13.32,0.026,195.1
2019-10-21T01:04:24,42.805,6.029,0.003,0.004,-0.07,99.0,104.0,99.0,13.3,1505.3,328.1,-0.7,1.8,2469.986,13.32,0.005,36.9
2019-10-21T01:07:25,42.805,6.029,0.001,0.014,-0.056,99.0,103.0,97.0,13.3,1505.3,323.8,-0.7,1.9,2469.969,13.32,0.014,4.1
2019-10-21T01:10:26,42.805,6.029,0.006,-0.003,-0.046,100.0,103.0,98.0,13.4,1505.3,324.9,-0.7,1.9,2469.985,13.32,0.006,116.6
2019-10-21T01:13:27,42.805,6.029,0.035,0.0,-0.029,99.0,105.0,98.0,13.4,1505.3,323.7,-0.7,1.8,2469.997,13.32,0.035,90.0
2019-10-21T01:16:28,42.805,6.029,0.017,-0.001,-0.053,100.0,105.0,97.0,13.3,1505.3,322.8,-0.8,1.9,2470.033,13.32,0.017,93.4
2019-10-21T01:19:29,42.805,6.029,0.014,-0.005,-0.025,98.0,105.0,97.0,13.4,1505.3,326.2,-0.7,1.8,2469.98,13.32,0.014,109.6
2019-10-21T01:22:30,42.805,6.029,0.018,-0.015,-0.054,99.0,105.0,97.0,13.3,1505.3,325.7,-0.7,1.8,2470.028,13.32,0.023,129.8
2019-10-21T01:25:31,42.805,6.029,0.036,-0.006,-0.041,100.0,103.0,97.0,13.4,1505.3,324.6,-0.7,1.9,2470.006,13.32,0.036,99.5
2019-10-21T01:28:32,42.805,6.029,0.015,-0.014,-0.062,100.0,103.0,97.0,13.3,1505.3,325.9,-0.7,1.8,2470.015,13.32,0.02,133.0
2019-10-21T01:31:33,42.805,6.029,0.041,0.002,-0.024,102.0,103.0,97.0,13.4,1505.3,326.3,-0.7,1.8,2470.005,13.32,0.041,87.2
2019-10-21T01:34:34,42.805,6.029,0.003,0.002,-0.039,99.0,102.0,98.0,13.3,1505.3,326.0,-0.7,1.8,2469.993,13.32,0.003,56.3
2019-10-21T01:37:35,42.805,6.029,0.025,-0.022,-0.053,99.0,103.0,97.0,13.4,1505.3,324.6,-0.7,1.8,2469.957,13.32,0.033,131.3
2019-10-21T01:40:36,42.805,6.029,0.01,-0.001,-0.036,99.0,105.0,98.0,13.4,1505.3,325.4,-0.7,1.8,2470.042,13.32,0.01,95.7
2019-10-21T01:43:37,42.805,6.029,0.001,-0.016,-0.074,100.0,102.0,97.0,13.4,1505.3,325.6,-0.7,1.8,2469.963,13.32,0.016,176.4
2019-10-21T01:46:38,42.805,6.029,0.024,-0.009,-0.029,100.0,104.0,98.0,13.4,1505.3,326.0,-0.7,1.8,2470.009,13.32,0.025,110.6
2019-10-21T01:49:39,42.805,6.029,0.055,0.004,-0.055,99.0,104.0,97.0,13.4,1505.3,327.6,-0.7,1.8,2470.031,13.32,0.055,85.8
2019-10-21T01:52:40,42.805,6.029,0.009,0.004,-0.037,101.0,102.0,97.0,13.4,1505.3,326.9,-0.7,1.8,2469.982,13.32,0.009,66.0
2019-10-21T01:55:41,42.805,6.029,0.01,-0.018,-0.033,99.0,102.0,100.0,13.3,1505.3,324.3,-0.7,1.8,2469.976,13.32,0.02,150.9
2019-10-21T01:58:42,42.805,6.029,0.023,-0.019,-0.06,99.0,103.0,97.0,13.4,1505.3,325.0,-0.7,1.8,2470.034,13.32,0.029,129.6
2019-10-21T02:01:43,42.805,6.029,0.029,-0.022,-0.06,98.0,102.0,98.0,13.4,1505.3,325.2,-0.7,1.9,2470.007,13.32,0.036,127.2
2019-10-21T02:04:44,42.805,6.029,0.021,-0.001,-0.055,101.0,102.0,98.0,13.4,1505.3,324.4,-0.7,1.9,2469.991,13.32,0.021,92.7
2019-10-21T02:07:45,42.805,6.029,0.053,-0.011,-0.036,100.0,102.0,97.0,13.3,1505.3,324.0,-0.7,1.8,2470.021,13.32,0.054,101.7
2019-10-21T02:10:46,42.805,6.029,0.01,-0.019,-0.079,99.0,101.0,98.0,13.3,1505.3,324.0,-0.7,1.8,2469.984,13.32,0.021,152.2
2019-10-21T02:13:47,42.805,6.029,0.027,0.002,-0.037,100.0,100.0,97.0,13.4,1505.3,325.1,-0.7,1.8,2470.004,13.32,0.027,85.8
2019-10-21T02:16:48,42.805,6.029,0.016,-0.02,-0.035,100.0,104.0,98.0,13.4,1505.3,325.2,-0.7,1.8,2470.009,13.32,0.025,141.3
2019-10-21T02:19:49,42.805,6.029,-0.003,-0.002,-0.049,99.0,102.0,98.0,13.4,1505.3,326.4,-0.7,1.8,2470.014,13.32,0.003,236.3
2019-10-21T02:22:50,42.805,6.029,0.058,-0.002,0.014,100.0,103.0,98.0,13.4,1505.3,326.7,-0.7,1.8,2469.967,13.32,0.058,92.0
2019-10-21T02:25:51,42.805,6.029,0.043,-0.008,-0.018,100.0,103.0,99.0,13.4,1505.3,325.2,-0.7,1.8,2470.016,13.32,0.043,100.5
2019-10-21T02:28:52,42.805,6.029,0.039,-0.005,-0.023,99.0,105.0,99.0,13.4,1505.3,327.8,-0.7,1.8,2470.036,13.32,0.039,97.3
2019-10-21T02:31:53,42.805,6.029,0.026,-0.021,-0.031,99.0,104.0,98.0,13.4,1505.3,326.9,-0.8,1.8,2470.034,13.32,0.033,128.9
2019-10-21T02:34:54,42.805,6.029,0.032,0.003,-0.014,99.0,104.0,97.0,13.4,1505.3,324.4,-0.7,1.8,2470.022,13.32,0.032,84.6
2019-10-21T02:37:55,42.805,6.029,0.063,-0.014,-0.031,99.0,104.0,98.0,13.3,1505.3,324.9,-0.7,1.9,2470.022,13.32,0.064,102.5
2019-10-21T02:40:56,42.805,6.029,0.033,0.0,-0.022,100.0,104.0,98.0,13.3,1505.3,328.3,-0.7,1.8,2470.013,13.32,0.033,90.0
2019-10-21T02:43:57,42.805,6.029,0.031,-0.019,-0.021,99.0,104.0,98.0,13.3,1505.3,325.4,-0.7,1.8,2470.031,13.32,0.036,121.5
2019-10-21T02:46:58,42.805,6.029,0.016,-0.018,-0.06,100.0,102.0,98.0,13.4,1505.3,324.9,-0.7,1.8,2469.99,13.32,0.024,138.4
2019-10-21T02:49:59,42.805,6.029,0.031,-0.028,-0.032,99.0,104.0,98.0,13.4,1505.3,324.8,-0.7,1.8,2470.012,13.32,0.041,132.1
2019-10-21T02:53:00,42.805,6.029,0.05,-0.004,0.007,98.0,105.0,98.0,13.4,1505.3,324.8,-0.7,1.8,2470.049,13.32,0.05,94.6
2019-10-21T02:56:01,42.805,6.029,0.021,-0.012,-0.067,102.0,100.0,98.0,13.4,1505.3,325.8,-0.7,1.8,2469.969,13.32,0.024,119.7
2019-10-21T02:59:02,42.805,6.029,0.017,-0.008,-0.021,101.0,102.0,98.0,13.4,1505.3,325.8,-0.7,1.8,2470.003,13.32,0.018,115.2
2019-10-21T03:02:03,42.805,6.029,0.006,-0.016,-0.048,100.0,105.0,98.0,13.4,1505.3,325.8,-0.7,1.9,2470.006,13.32,0.017,159.4
2019-10-21T03:05:04,42.805,6.029,-0.004,-0.027,-0.07,100.0,104.0,99.0,13.3,1505.3,327.4,-0.7,1.8,2470.02,13.32,0.027,188.4
2019-10-21T03:08:05,42.805,6.029,0.023,-0.012,-0.042,100.0,103.0,97.0,13.3,1505.3,325.8,-0.7,1.8,2470.016,13.32,0.025,117.6
2019-10-21T03:11:06,42.805,6.029,-0.007,-0.023,-0.061,101.0,103.0,98.0,13.4,1505.3,326.5,-0.7,1.8,2470.011,13.32,0.024,196.9
2019-10-21T03:14:07,42.805,6.029,0.034,-0.014,-0.061,101.0,103.0,99.0,13.4,1505.3,324.0,-0.7,1.9,2470.027,13.32,0.036,112.4
2019-10-21T03:17:08,42.805,6.029,0.003,0.006,-0.031,100.0,102.0,98.0,13.4,1505.3,326.8,-0.7,1.8,2469.977,13.32,0.006,26.6
2019-10-21T03:20:09,42.805,6.029,0.02,0.0,-0.025,100.0,103.0,98.0,13.4,1505.3,325.1,-0.7,1.8,2469.982,13.32,0.02,90.0
2019-10-21T03:23:10,42.805,6.029,0.021,-0.01,-0.024,101.0,101.0,98.0,13.3,1505.3,323.2,-0.7,1.9,2469.96,13.32,0.023,115.5
2019-10-21T03:26:11,42.805,6.029,0.019,-0.026,-0.032,101.0,101.0,98.0,13.4,1505.3,326.5,-0.7,1.8,2469.949,13.32,0.032,143.8
2019-10-21T03:29:12,42.805,6.029,0.016,-0.012,-0.052,99.0,103.0,99.0,13.3,1505.3,326.3,-0.7,1.8,2470.006,13.32,0.02,126.9
2019-10-21T03:32:13,42.805,6.029,0.021,-0.027,-0.072,100.0,103.0,99.0,13.4,1505.3,327.2,-0.7,1.8,2469.963,13.32,0.034,142.1
2019-10-21T03:35:14,42.805,6.029,-0.004,-0.018,-0.049,101.0,102.0,100.0,13.4,1505.3,324.6,-0.7,1.8,2469.967,13.32,0.018,192.5
2019-10-21T03:38:15,42.805,6.029,0.017,-0.011,-0.033,100.0,103.0,98.0,13.4,1505.3,328.6,-0.7,1.8,2470.017,13.32,0.02,122.9
2019-10-21T03:41:16,42.805,6.029,0.028,-0.017,-0.015,100.0,103.0,97.0,13.3,1505.3,328.7,-0.7,1.8,2469.983,13.32,0.032,121.3
2019-10-21T03:44:17,42.805,6.029,0.01,-0.01,-0.062,99.0,104.0,99.0,13.4,1505.3,325.7,-0.7,1.8,2470.016,13.32,0.014,135.0
2019-10-21T03:47:18,42.805,6.029,0.012,-0.007,-0.06,101.0,104.0,98.0,13.4,1505.3,327.4,-0.7,1.9,2470.024,13.32,0.013,120.3
2019-10-21T03:50:19,42.805,6.029,0.023,-0.031,-0.052,100.0,104.0,99.0,13.4,1505.3,327.7,-0.7,1.8,2469.998,13.32,0.038,143.4
2019-10-21T03:53:20,42.805,6.029,0.033,-0.025,-0.037,99.0,104.0,99.0,13.4,1505.3,325.6,-0.7,1.8,2469.997,13.32,0.041,127.1
2019-10-21T03:56:21,42.805,6.029,0.014,-0.015,-0.048,100.0,103.0,99.0,13.3,1505.3,326.6,-0.7,1.9,2469.999,13.32,0.02,137.0
2019-10-21T03:59:22,42.805,6.029,0.037,-0.012,-0.032,99.0,101.0,98.0,13.4,1505.3,326.3,-0.7,1.8,2470.008,13.32,0.038,108.0
2019-10-21T04:02:23,42.805,6.029,-0.004,-0.019,-0.1,99.0,104.0,98.0,13.4,1505.3,325.4,-0.7,1.8,2469.976,13.32,0.019,191.9
2019-10-21T04:05:24,42.805,6.029,0.0,-0.027,-0.062,100.0,103.0,98.0,13.3,1505.3,325.5,-0.7,1.9,2469.964,13.32,0.026,180.0
2019-10-21T04:08:25,42.805,6.029,0.019,-0.015,-0.053,99.0,103.0,98.0,13.4,1505.3,324.4,-0.7,1.8,2469.987,13.32,0.024,128.3
2019-10-21T04:11:26,42.805,6.029,0.052,-0.032,-0.061,101.0,104.0,98.0,13.4,1505.3,326.5,-0.7,1.8,2470.0,13.32,0.061,121.6
2019-10-21T04:14:27,42.805,6.029,0.04,-0.015,-0.008,100.0,103.0,99.0,13.4,1505.3,325.8,-0.7,1.8,2469.99,13.32,0.042,110.6
2019-10-21T04:17:28,42.805,6.029,0.054,-0.017,-0.009,100.0,104.0,98.0,13.4,1505.3,327.7,-0.7,1.9,2469.994,13.32,0.056,107.5
2019-10-21T04:20:29,42.805,6.029,0.018,-0.011,-0.054,101.0,103.0,98.0,13.4,1505.3,324.3,-0.7,1.9,2470.026,13.32,0.021,121.4
2019-10-21T04:23:30,42.805,6.029,0.032,-0.012,-0.042,101.0,104.0,98.0,13.4,1505.3,326.5,-0.7,1.9,2469.963,13.32,0.034,110.6
2019-10-21T04:26:31,42.805,6.029,0.014,-0.01,-0.026,100.0,103.0,98.0,13.4,1505.3,328.1,-0.7,1.8,2469.978,13.32,0.017,125.5
2019-10-21T04:29:32,42.805,6.029,-0.02,0.008,-0.055,101.0,103.0,99.0,13.4,1505.3,324.5,-0.7,1.9,2469.998,13.32,0.021,291.8
2019-10-21T04:32:33,42.805,6.029,0.031,-0.027,-0.015,101.0,103.0,98.0,13.3,1505.3,323.3,-0.7,1.8,2469.985,13.32,0.041,131.1
2019-10-21T04:35:34,42.805,6.029,0.022,-0.011,-0.044,100.0,104.0,98.0,13.4,1505.3,328.4,-0.7,1.8,2469.984,13.32,0.024,116.6
2019-10-21T04:38:35,42.805,6.029,0.02,-0.029,-0.032,99.0,103.0,98.0,13.3,1505.3,325.5,-0.7,1.8,2469.97,13.32,0.035,145.4
2019-10-21T04:41:36,42.805,6.029,0.024,-0.014,-0.035,101.0,103.0,99.0,13.4,1505.3,327.2,-0.7,1.8,2470.007,13.32,0.027,120.3
2019-10-21T04:44:37,42.805,6.029,0.009,-0.029,-0.037,100.0,103.0,98.0,13.4,1505.3,324.7,-0.7,1.8,2469.994,13.32,0.03,162.8
2019-10-21T04:47:38,42.805,6.029,-0.013,-0.02,-0.064,102.0,102.0,98.0,13.3,1505.3,323.2,-0.7,1.8,2469.993,13.32,0.023,213.0
2019-10-21T04:50:39,42.805,6.029,0.03,-0.017,-0.008,100.0,102.0,99.0,13.3,1505.3,324.5,-0.7,1.8,2469.972,13.32,0.034,119.5
2019-10-21T04:53:40,42.805,6.029,0.008,-0.011,-0.057,101.0,104.0,100.0,13.3,1505.3,325.8,-0.7,1.9,2469.993,13.32,0.013,144.0
2019-10-21T04:56:41,42.805,6.029,0.032,-0.023,-0.037,101.0,103.0,98.0,13.4,1505.3,324.8,-0.7,1.8,2469.939,13.32,0.039,125.7
2019-10-21T04:59:42,42.805,6.029,0.043,0.001,-0.002,100.0,104.0,99.0,13.3,1505.3,325.2,-0.7,1.8,2469.979,13.32,0.043,88.7
2019-10-21T05:02:43,42.805,6.029,0.001,-0.009,-0.063,101.0,103.0,99.0,13.4,1505.3,324.9,-0.7,1.9,2470.009,13.32,0.009,173.7
2019-10-21T05:05:44,42.805,6.029,0.01,-0.017,-0.036,101.0,104.0,99.0,13.4,1505.3,326.6,-0.7,1.8,2469.934,13.32,0.019,149.5
2019-10-21T05:08:45,42.805,6.029,0.009,-0.028,-0.059,101.0,103.0,99.0,13.4,1505.3,324.8,-0.7,1.8,2469.989,13.32,0.029,162.2
2019-10-21T05:11:46,42.805,6.029,0.02,-0.014,-0.013,101.0,103.0,98.0,13.4,1505.3,326.3,-0.7,1.8,2469.979,13.32,0.024,125.0
2019-10-21T05:14:47,42.805,6.029,0.008,-0.004,-0.054,101.0,102.0,99.0,13.4,1505.3,324.9,-0.7,1.8,2469.991,13.32,0.008,116.6
2019-10-21T05:17:48,42.805,6.029,0.019,-0.012,-0.046,101.0,103.0,99.0,13.3,1505.3,326.3,-0.7,1.8,2469.999,13.32,0.022,122.3
2019-10-21T05:20:49,42.805,6.029,-0.01,-0.01,-0.053,100.0,103.0,99.0,13.4,1505.3,325.8,-0.7,1.8,2470.011,13.32,0.014,225.0
2019-10-21T05:23:50,42.805,6.029,0.009,-0.005,-0.029,100.0,103.0,98.0,13.3,1505.3,326.5,-0.7,1.8,2470.004,13.32,0.01,119.1
2019-10-21T05:26:51,42.805,6.029,0.037,-0.007,-0.014,102.0,103.0,98.0,13.4,1505.3,326.7,-0.7,1.8,2469.986,13.32,0.037,100.7
2019-10-21T05:29:52,42.805,6.029,0.039,-0.034,-0.025,101.0,101.0,99.0,13.4,1505.3,324.6,-0.7,1.9,2469.998,13.32,0.051,131.1
2019-10-21T05:32:53,42.805,6.029,0.026,-0.024,-0.035,101.0,102.0,99.0,13.4,1505.3,324.7,-0.7,1.8,2469.976,13.32,0.035,132.7
2019-10-21T05:35:54,42.805,6.029,0.019,-0.029,-0.051,101.0,102.0,100.0,13.4,1505.3,326.3,-0.7,1.8,2469.994,13.32,0.034,146.8
2019-10-21T05:38:55,42.805,6.029,0.014,-0.027,-0.022,100.0,101.0,98.0,13.3,1505.3,325.0,-0.7,1.8,2470.014,13.32,0.03,152.6
2019-10-21T05:41:56,42.805,6.029,0.024,-0.013,-0.043,101.0,103.0,99.0,13.3,1505.3,326.8,-0.7,1.8,2470.007,13.32,0.027,118.4
2019-10-21T05:44:57,42.805,6.029,-0.018,-0.018,-0.078,101.0,103.0,99.0,13.4,1505.3,327.4,-0.7,1.8,2469.956,13.32,0.025,225.0
2019-10-21T05:47:58,42.805,6.029,0.005,-0.018,-0.046,101.0,103.0,99.0,13.3,1505.3,325.4,-0.7,1.9,2470.035,13.32,0.018,164.5
2019-10-21T05:50:59,42.805,6.029,0.005,-0.016,-0.058,100.0,103.0,99.0,13.3,1505.3,324.6,-0.7,1.8,2469.984,13.32,0.016,162.6
2019-10-21T05:54:00,42.805,6.029,0.023,-0.019,-0.048,100.0,103.0,99.0,13.4,1505.3,325.4,-0.8,1.8,2469.965,13.32,0.029,129.6
2019-10-21T05:57:01,42.805,6.029,0.004,-0.02,-0.049,100.0,103.0,99.0,13.4,1505.3,326.7,-0.7,1.8,2469.975,13.32,0.02,168.7
2019-10-21T06:00:02,42.805,6.029,0.013,-0.009,-0.054,100.0,104.0,98.0,13.3,1505.3,324.4,-0.7,1.8,2470.01,13.32,0.015,124.7
2019-10-21T06:03:03,42.805,6.029,0.005,-0.002,-0.015,101.0,103.0,98.0,13.3,1505.3,325.0,-0.7,1.8,2469.982,13.33,0.005,111.8
2019-10-21T06:06:04,42.805,6.029,0.022,0.001,-0.034,101.0,103.0,99.0,13.4,1505.3,326.3,-0.7,1.9,2469.982,13.33,0.022,87.4
2019-10-21T06:09:05,42.805,6.029,0.002,-0.014,-0.048,100.0,103.0,99.0,13.4,1505.3,324.9,-0.8,1.8,2469.972,13.33,0.014,171.9
2019-10-21T06:12:06,42.805,6.029,0.032,-0.023,-0.038,101.0,103.0,98.0,13.4,1505.3,325.5,-0.7,1.9,2469.967,13.33,0.039,125.7
2019-10-21T06:15:07,42.805,6.029,-0.019,-0.018,-0.053,102.0,103.0,98.0,13.3,1505.3,324.9,-0.7,1.9,2469.977,13.33,0.026,226.5
2019-10-21T06:18:08,42.805,6.029,0.006,-0.005,-0.045,101.0,105.0,99.0,13.3,1505.3,325.1,-0.7,1.8,2470.04,13.33,0.007,129.8
